Location: Hemaruka
(51.7801°N, 111.0917°W)
Time: 17:13:03
(UTC+00:00)

BlueWalker 3 - Visible Passes

Search period start: 10 June 2023 00:00
Search period end: 20 June 2023 00:00
Orbit: 493 x 513 km, 53.2° (Epoch: 09 June)

Date Brightness Start Highest point End Pass type
(mag) Time Alt. Az. Time Alt. Az. Time Alt. Az.
10 Jun 1.9 04:53:32 10° WNW 04:57:23 72° SSW 05:01:15 10° ESE visible
10 Jun 3.4 06:32:30 10° W 06:35:28 21° SW 06:36:05 20° SSW visible
11 Jun 2.0 04:33:05 10° WNW 04:36:55 71° SSW 04:40:47 10° ESE visible
11 Jun 3.5 06:12:04 10° W 06:14:59 21° SW 06:16:01 19° SSW visible
12 Jun 3.6 05:51:37 10° W 05:54:30 20° SW 05:55:59 16° S visible
13 Jun 3.7 05:31:09 10° W 05:34:00 20° SW 05:36:00 14° S visible
14 Jun 3.7 05:10:40 10° W 05:13:29 19° SW 05:16:03 11° S visible
15 Jun 3.8 04:50:12 10° W 04:52:58 19° SW 04:55:44 10° S visible
16 Jun 3.9 04:29:42 10° W 04:32:26 19° SW 04:35:10 10° S visible
